Ely, MN

8:41 PM CST on February 11, 2016 (GMT -0600)
Ely Municipal

Weather History for KELO - November, 2011

Change the Weather History Date:

Saturday, November 26, 2011

  Actual Average Record
Temperature  
Mean Temperature 32 °F -  
Max Temperature 33 °F 29 °F 41 °F (1998)
Min Temperature 30 °F 16 °F -11 °F (1996)
Degree Days  
Heating Degree Days 34    
Moisture  
Dew Point 30 °F    
Average Humidity 97    
Maximum Humidity 100    
Minimum Humidity 87    
Precipitation  
Precipitation 0.29 in - - ()
Sea Level Pressure  
Sea Level Pressure 29.79 in    
Wind  
Wind Speed 4 mph (NNE)    
Max Wind Speed 8 mph    
Max Gust Speed -    
Visibility 3 miles    
Events Snow    
Averages and records for this station are not official NWS values.
T = Trace of Precipitation, MM = Missing Value Source: NWS Daily Summary

Daily Weather History Graph

Daily Weather History Graph

Search for Another Location

Airport or City:

Trip Planner

Search our weather history database for the weather conditions in past years. The results will help you decide how hot, cold, wet, or windy it might be!

Date:

Astronomy

Nov. 26, 2011 Rise Set
Actual Time 7:28 AM CST 4:20 PM CST
Civil Twilight 6:53 AM CST 4:55 PM CST
Nautical Twilight 6:15 AM CST 5:33 PM CST
Astronomical Twilight 5:38 AM CST 6:10 PM CST
Moon 9:04 AM CST (11/26) 5:47 PM CST (11/26)
Length of Visible Light 10h 01m
Length of Day
8h 51m
Waxing Crescent, 3% of the Moon is Illuminated
Nov 26
Waxing Crescent
Dec 2
First Quarter
Dec 10
Full
Dec 17
Last Quarter
Dec 24
New

Hourly Weather History & Observations

Time (CST) Temp. Windchill Dew Point Humidity Pressure Visibility Wind Dir Wind Speed Gust Speed Precip Events Conditions
12:12 AM 33.8 °F 30.8 °F 32.0 °F 93% 29.81 in 3.0 mi NE 3.5 mph - N/A   Overcast
12:33 AM 33.8 °F 29.6 °F 32.0 °F 93% 29.80 in 2.5 mi ENE 4.6 mph - N/A   Drizzle
12:52 AM 33.8 °F 28.6 °F 32.0 °F 93% 29.80 in 2.5 mi NE 5.8 mph - N/A   Drizzle
1:13 AM 33.8 °F 29.6 °F 30.2 °F 87% 29.80 in 2.5 mi NNE 4.6 mph - N/A   Drizzle
1:33 AM 32.0 °F 27.5 °F 30.2 °F 93% 29.80 in 3.0 mi NE 4.6 mph - N/A   Drizzle
1:52 AM 32.0 °F 28.7 °F 30.2 °F 93% 29.80 in 3.0 mi NE 3.5 mph - N/A   Overcast
2:13 AM 32.0 °F 28.7 °F 30.2 °F 93% 29.80 in 3.0 mi NE 3.5 mph - N/A   Overcast
2:33 AM 32.0 °F 26.4 °F 30.2 °F 93% 29.79 in 4.0 mi NE 5.8 mph - N/A Snow Light Snow
2:52 AM 32.0 °F 25.6 °F 30.2 °F 93% 29.79 in 5.0 mi NE 6.9 mph - N/A   Overcast
3:13 AM 32.0 °F 24.8 °F 30.2 °F 93% 29.78 in 5.0 mi ENE 8.1 mph - N/A   Overcast
3:33 AM 32.0 °F 25.6 °F 30.2 °F 93% 29.78 in 7.0 mi ENE 6.9 mph - N/A   Overcast
3:52 AM 30.2 °F 23.4 °F 30.2 °F 100% 29.78 in 7.0 mi ENE 6.9 mph - N/A   Overcast
4:13 AM 30.2 °F 23.4 °F 28.4 °F 93% 29.79 in 7.0 mi ENE 6.9 mph - N/A   Overcast
4:32 AM 30.2 °F 24.3 °F 28.4 °F 93% 29.79 in 5.0 mi ENE 5.8 mph - 0.01 in   Overcast
4:52 AM 30.2 °F 23.4 °F 30.2 °F 100% 29.78 in 7.0 mi ENE 6.9 mph - 0.02 in   Overcast
4:55 AM 30.2 °F 23.4 °F 30.2 °F 100% 29.78 in 7.0 mi ENE 6.9 mph - N/A   Overcast
5:13 AM 30.2 °F 25.4 °F 28.4 °F 93% 29.78 in 7.0 mi ENE 4.6 mph - N/A   Overcast
5:33 AM 30.2 °F 24.3 °F 30.2 °F 100% 29.78 in 5.0 mi ENE 5.8 mph - 0.02 in   Overcast
5:53 AM 30.2 °F 25.4 °F 30.2 °F 100% 29.78 in 5.0 mi ENE 4.6 mph - 0.03 in   Overcast
5:55 AM 30.2 °F 24.3 °F 30.2 °F 100% 29.78 in 5.0 mi ENE 5.8 mph - N/A   Overcast
6:13 AM 32.0 °F 28.7 °F 30.2 °F 93% 29.78 in 4.0 mi ENE 3.5 mph - 0.02 in Snow Light Snow
6:33 AM 32.0 °F 28.7 °F 30.2 °F 93% 29.78 in 1.5 mi NE 3.5 mph - 0.03 in Snow Light Snow
6:52 AM 30.2 °F 24.3 °F 30.2 °F 100% 29.78 in 1.8 mi ENE 5.8 mph - 0.05 in Snow Light Snow
6:55 AM 30.2 °F 24.3 °F 30.2 °F 100% 29.77 in 1.8 mi ENE 5.8 mph - 0.05 in Snow Light Snow
7:12 AM 30.2 °F 25.4 °F 30.2 °F 100% 29.76 in 2.0 mi ENE 4.6 mph - N/A Snow Light Snow
7:33 AM 30.2 °F 24.3 °F 30.2 °F 100% 29.76 in 3.0 mi NE 5.8 mph - 0.02 in Snow Light Snow
7:53 AM 30.2 °F 25.4 °F 30.2 °F 100% 29.76 in 2.5 mi NE 4.6 mph - 0.03 in Snow Light Snow
7:55 AM 30.2 °F 24.3 °F 30.2 °F 100% 29.76 in 2.5 mi NE 5.8 mph - 0.03 in Snow Light Snow
8:12 AM 30.2 °F 25.4 °F 30.2 °F 100% 29.77 in 4.0 mi NE 4.6 mph - 0.01 in Snow Light Snow
8:33 AM 30.2 °F - 30.2 °F 100% 29.78 in 3.0 mi Calm Calm - 0.02 in Snow Light Snow
8:52 AM 30.2 °F 26.7 °F 30.2 °F 100% 29.78 in 3.0 mi NNE 3.5 mph - N/A Snow Light Snow
8:55 AM 30.2 °F - 30.2 °F 100% 29.78 in 3.0 mi Calm Calm - 0.03 in Snow Light Snow
9:13 AM 30.2 °F - 30.2 °F 100% 29.78 in 1.2 mi Calm Calm - 0.01 in Snow Light Snow
9:32 AM 30.2 °F - 30.2 °F 100% 29.79 in 1.5 mi Calm Calm - 0.02 in Snow Light Snow
9:53 AM 30.2 °F - 30.2 °F 100% 29.79 in 0.8 mi Calm Calm - N/A Snow Light Snow
9:55 AM 30.2 °F - 30.2 °F 100% 29.79 in 0.8 mi Calm Calm - 0.04 in Snow Light Snow
10:13 AM 30.2 °F 26.7 °F 30.2 °F 100% 29.80 in 0.8 mi North 3.5 mph - 0.02 in Snow Light Snow
10:32 AM 30.2 °F 26.7 °F 30.2 °F 100% 29.80 in 1.0 mi NNE 3.5 mph - 0.04 in Snow Light Snow
10:53 AM 30.2 °F 25.4 °F 30.2 °F 100% 29.80 in 1.0 mi North 4.6 mph - 0.05 in Snow Light Snow
10:55 AM 30.2 °F 26.7 °F 30.2 °F 100% 29.80 in 1.0 mi NNE 3.5 mph - 0.05 in Snow Light Snow
11:13 AM 30.2 °F 26.7 °F 30.2 °F 100% 29.79 in 1.0 mi North 3.5 mph - 0.01 in Snow Light Snow
11:32 AM 30.2 °F - 30.2 °F 100% 29.79 in 1.0 mi Calm Calm - 0.02 in Snow Light Snow
11:53 AM 30.2 °F 26.7 °F 30.2 °F 100% 29.79 in 1.0 mi North 3.5 mph - 0.03 in Snow Light Snow
11:55 AM 30.2 °F - 30.2 °F 100% 29.79 in 1.0 mi Calm Calm - 0.03 in Snow Light Snow
12:13 PM 30.2 °F 26.7 °F 30.2 °F 100% 29.79 in 1.8 mi North 3.5 mph - N/A Snow Light Snow
12:32 PM 30.2 °F 25.4 °F 28.4 °F 93% 29.79 in 1.5 mi North 4.6 mph - N/A Snow Light Snow
12:53 PM 30.2 °F 24.3 °F 28.4 °F 93% 29.80 in 2.0 mi NNW 5.8 mph - N/A Snow Light Snow
1:13 PM 30.2 °F 24.3 °F 28.4 °F 93% 29.80 in 2.0 mi NNW 5.8 mph - 0.01 in Snow Light Snow
1:32 PM 30.2 °F - 28.4 °F 93% 29.80 in 1.8 mi Calm Calm - N/A Snow Light Snow
1:53 PM 30.2 °F 24.3 °F 28.4 °F 93% 29.80 in 2.5 mi NNW 5.8 mph - 0.01 in Snow Light Snow
1:55 PM 30.2 °F 24.3 °F 28.4 °F 93% 29.80 in 2.5 mi NNW 5.8 mph - 0.01 in Snow Light Snow
2:12 PM 30.2 °F 26.7 °F 28.4 °F 93% 29.80 in 2.5 mi NW 3.5 mph - N/A Snow Light Snow
2:32 PM 30.2 °F 24.3 °F 28.4 °F 93% 29.81 in 5.0 mi NW 5.8 mph - N/A Snow Light Snow
2:53 PM 30.2 °F 24.3 °F 28.4 °F 93% 29.81 in 3.0 mi NW 5.8 mph - N/A Snow Light Snow
3:13 PM 30.2 °F 26.7 °F 28.4 °F 93% 29.83 in 2.5 mi NW 3.5 mph - N/A Snow Light Snow
3:32 PM 30.2 °F 22.6 °F 28.4 °F 93% 29.83 in 4.0 mi NW 8.1 mph - N/A Snow Light Snow
3:53 PM 30.2 °F 25.4 °F 28.4 °F 93% 29.84 in 10.0 mi NNW 4.6 mph - N/A   Overcast
4:12 PM 30.2 °F 24.3 °F 26.6 °F 86% 29.85 in 10.0 mi NW 5.8 mph - N/A   Overcast
4:32 PM 30.2 °F 23.4 °F 26.6 °F 86% 29.86 in 10.0 mi NW 6.9 mph - N/A   Overcast
4:53 PM 30.2 °F 24.3 °F 26.6 °F 86% 29.87 in 10.0 mi NW 5.8 mph - N/A   Overcast
5:13 PM 28.4 °F 20.4 °F 26.6 °F 93% 29.89 in 10.0 mi NW 8.1 mph - N/A   Overcast
5:32 PM 28.4 °F 20.4 °F 26.6 °F 93% 29.89 in 10.0 mi NNW 8.1 mph - N/A   Overcast
5:53 PM 28.4 °F 21.2 °F 26.6 °F 93% 29.90 in 10.0 mi NNW 6.9 mph - N/A   Overcast
6:12 PM 28.4 °F 19.7 °F 26.6 °F 93% 29.90 in 5.0 mi NW 9.2 mph - N/A Snow Light Snow
6:32 PM 28.4 °F 19.7 °F 26.6 °F 93% 29.90 in 10.0 mi NW 9.2 mph - N/A   Overcast
6:52 PM 28.4 °F 19.7 °F 26.6 °F 93% 29.91 in 10.0 mi NW 9.2 mph 18.4 mph N/A   Overcast
7:13 PM 28.4 °F 20.4 °F 26.6 °F 93% 29.92 in 2.0 mi NNW 8.1 mph - N/A Snow Light Snow
7:32 PM 28.4 °F 22.2 °F 26.6 °F 93% 29.92 in 4.0 mi NNW 5.8 mph - N/A Snow Light Snow
7:53 PM 28.4 °F 19.1 °F 26.6 °F 93% 29.93 in 4.0 mi NW 10.4 mph - N/A Snow Light Snow
8:13 PM 28.4 °F 19.1 °F 26.6 °F 93% 29.93 in 10.0 mi NW 10.4 mph - N/A Snow Light Snow
8:32 PM 28.4 °F 20.4 °F 24.8 °F 86% 29.94 in 7.0 mi NW 8.1 mph 17.3 mph N/A   Overcast
8:53 PM 28.4 °F 18.0 °F 24.8 °F 86% 29.95 in 10.0 mi NW 12.7 mph 21.9 mph N/A   Overcast
9:12 PM 28.4 °F 19.7 °F 24.8 °F 86% 29.95 in 10.0 mi NW 9.2 mph 17.3 mph N/A   Overcast
9:32 PM 26.6 °F 16.8 °F 24.8 °F 93% 29.96 in 10.0 mi NW 10.4 mph 18.4 mph N/A   Overcast
9:53 PM 26.6 °F 16.8 °F 24.8 °F 93% 29.96 in 10.0 mi NNW 10.4 mph 18.4 mph N/A   Overcast
10:12 PM 26.6 °F 18.2 °F 24.8 °F 93% 29.96 in 10.0 mi NNW 8.1 mph 17.3 mph N/A   Overcast
10:32 PM 26.6 °F 17.5 °F 24.8 °F 93% 29.96 in 10.0 mi NNW 9.2 mph 19.6 mph N/A   Overcast
10:53 PM 26.6 °F 17.5 °F 24.8 °F 93% 29.96 in 10.0 mi NW 9.2 mph 18.4 mph N/A   Overcast
11:12 PM 26.6 °F 16.8 °F 23.0 °F 86% 29.97 in 10.0 mi NNW 10.4 mph 25.3 mph N/A   Overcast
11:32 PM 26.6 °F 16.8 °F 24.8 °F 93% 29.97 in 10.0 mi NW 10.4 mph 20.7 mph N/A   Overcast
11:53 PM 26.6 °F 16.2 °F 23.0 °F 86% 29.97 in 10.0 mi NW 11.5 mph 17.3 mph N/A   Overcast